Wind_Speed
18 17 16 15 13 10 7 6 3 3 3 3 4 6 8 9 11 11 12 12 12 12 11 11 10 8 8 7 6 6 5 5 4 4 4 3 2 2 2 1 1 1 1
18 17 15 14 12 10 7 4 2 2 2 3 4 5 7 8 9 11 11 12 12 12 12 12 11 9 8 7 7 7 7 6 6 5 4 4 4 4 3 2 2 2 2
17 16 15 13 11 9 7 4 1 1 2 4 4 5 6 8 9 10 11 12 12 12 12 12 12 11 9 9 8 8 8 7 7 6 6 6 6 5 5 4 3 3 3
17 15 14 12 9 8 5 2 0 1 2 4 4 6 6 8 9 10 12 12 13 12 12 12 12 11 11 10 9 9 9 9 8 8 8 8 7 7 6 6 5 5 5
16 14 12 9 7 6 4 3 1 1 2 3 5 6 7 8 9 10 11 12 12 12 13 13 13 12 11 11 11 10 10 10 10 9 9 9 9 9 9 8 8 7 7
14 13 10 8 6 5 4 3 2 1 2 3 4 5 7 8 9 10 11 12 12 12 14 14 14 13 13 12 12 11 11 11 11 11 10 11 11 11 11 11 10 10 9
12 11 9 8 6 4 3 3 1 0 1 2 3 5 5 7 8 10 12 12 12 13 14 14 14 14 14 13 13 13 13 13 13 13 13 13 13 13 13 13 13 13 12
10 9 9 7 6 4 3 2 1 1 1 2 3 4 5 6 8 10 11 12 12 12 13 14 14 14 14 14 14 14 14 14 14 14 14 14 14 14 15 15 15 15 15
10 10 8 6 5 4 3 3 2 2 2 2 2 3 4 5 7 9 10 11 11 12 13 14 14 15 14 14 14 15 15 15 15 15 16 16 16 16 17 17 17 17 18
10 10 8 7 6 4 3 4 3 3 2 2 3 3 4 4 6 7 8 10 11 12 13 14 15 15 15 15 15 15 16 16 16 17 18 18 17 18 19 19 20 20 20
9 9 8 6 5 5 4 4 4 3 2 3 3 4 4 5 6 6 7 8 10 12 13 14 14 14 15 16 17 18 17 17 17 18 19 19 19 19 20 21 21 22 22
9 9 8 7 6 6 5 5 5 4 3 4 4 4 5 6 6 7 8 9 10 11 13 14 14 15 16 17 18 18 19 19 19 20 20 20 21 21 22 22 23 23 24
10 9 8 7 7 6 6 5 5 5 4 5 5 5 6 6 7 8 9 10 11 11 12 14 15 16 16 17 18 19 20 20 21 21 21 22 23 23 24 25 26 26 26
10 10 8 8 8 7 6 6 6 6 6 7 7 7 7 7 8 8 10 10 11 12 13 13 14 16 17 17 18 19 20 20 21 21 22 23 24 24 26 26 27 27 28
12 12 11 10 10 9 9 8 8 8 8 8 8 8 9 9 9 10 10 10 12 13 13 13 14 16 17 18 18 18 19 20 21 22 23 24 24 24 25 26 27 28 28
14 13 12 11 11 10 10 10 10 10 10 10 10 10 10 10 10 11 11 11 12 13 14 14 15 16 16 17 18 19 19 21 21 23 23 24 25 26 27 28 29 30 30
15 14 13 13 11 11 11 11 11 11 12 12 12 12 12 12 12 12 11 12 13 14 15 16 16 17 17 18 19 20 20 21 22 23 25 25 26 28 29 30 30 31 31
16 16 14 14 14 13 13 13 14 14 13 14 14 14 14 14 14 14 13 13 13 14 15 17 17 18 18 19 20 21 21 22 22 23 24 26 27 27 28 30 30 31 31
19 18 17 17 15 15 15 15 15 15 15 15 16 15 15 15 16 15 15 15 15 16 16 18 19 20 20 21 21 21 21 22 23 24 26 27 27 27 29 30 30 30 31
21 19 19 18 17 16 17 18 17 17 17 17 17 18 17 17 17 17 18 17 17 18 18 19 20 20 21 21 22 22 23 23 24 25 26 26 27 28 29 30 30 31 31
23 22 21 20 19 18 19 19 19 19 19 19 20 20 19 19 19 19 19 19 19 19 20 20 20 21 21 22 23 24 24 24 26 26 26 27 27 28 29 30 31 32 32
24 24 22 22 21 21 21 21 21 21 21 21 21 21 21 21 21 21 21 21 21 21 21 21 22 22 22 23 23 24 25 26 26 27 27 27 28 29 31 32 33 33 33
25 24 23 23 23 23 22 22 22 23 23 22 22 22 22 23 23 23 22 23 23 23 24 24 24 24 24 25 25 26 26 26 27 27 27 29 30 31 32 33 33 34 35
27 26 25 25 24 24 24 24 25 24 24 24 23 23 23 24 24 23 23 23 24 25 25 25 24 24 25 25 25 26 25 26 26 27 29 30 31 31 32 33 33 33 34
27 26 26 26 26 25 25 26 26 26 25 25 25 24 24 24 24 24 23 23 23 24 24 24 24 25 25 25 25 26 26 26 26 27 29 30 31 31 31 32 33 34 35
28 27 27 27 26 26 26 26 26 26 25 25 24 25 24 24 23 23 23 23 24 24 24 24 24 24 24 24 25 25 26 27 28 29 30 30 31 32 33 33 34 35 35
Wind_Direction
344 341 340 340 338 339 342 335 285 271 258 243 210 198 197 199 201 204 203 206 206 205 203 203 205 206 206 207 205 204 202 200 198 197 197 201 215 232 249 257 259 274 285
340 340 341 341 339 336 334 330 283 271 232 215 202 198 197 199 202 203 203 206 207 207 207 208 208 209 211 212 212 216 217 215 212 214 220 222 223 233 241 246 247 256 274
337 336 337 338 337 339 338 337 296 232 227 210 204 202 203 206 207 205 207 207 206 205 208 211 211 214 216 217 217 219 223 224 225 228 233 236 236 239 238 239 243 251 263
337 335 335 336 340 345 348 6 335 236 219 215 212 214 216 212 211 211 211 212 210 211 211 211 212 215 217 220 223 224 225 229 232 235 238 240 242 242 239 242 247 254 257
334 332 334 337 344 357 5 18 11 240 230 230 226 224 224 219 217 215 212 211 213 215 217 218 220 219 222 227 232 233 231 234 238 242 244 243 244 244 245 246 250 258 262
331 330 332 338 346 354 0 352 332 266 240 238 230 223 223 222 219 216 217 215 215 219 221 224 226 226 232 237 239 239 237 239 242 245 247 249 248 247 247 251 258 264 267
332 332 335 337 342 348 351 346 324 282 231 229 234 232 231 226 223 222 221 221 221 221 224 228 230 233 238 240 242 242 243 245 247 248 252 254 253 252 251 255 261 265 268
329 331 334 341 347 348 353 354 343 323 282 232 241 237 240 236 233 226 223 223 226 229 229 230 233 238 241 243 244 245 246 248 249 250 254 258 261 258 258 260 263 265 269
324 329 336 336 340 348 351 344 341 329 302 262 258 264 256 241 235 230 227 226 227 231 232 234 237 241 244 245 247 249 250 252 254 254 256 260 262 261 263 264 265 268 270
323 326 325 323 322 330 340 339 334 314 296 285 263 257 260 243 233 228 228 228 229 233 235 238 243 245 247 248 250 252 253 255 258 259 259 260 263 265 267 267 269 269 271
327 322 322 320 319 322 325 335 333 320 283 272 275 266 257 248 242 237 238 239 237 238 237 239 244 248 250 251 253 253 256 258 261 263 264 262 263 267 269 270 272 272 272
323 317 316 319 317 318 313 316 324 312 295 280 281 278 273 263 260 255 249 247 244 243 242 244 247 252 255 256 256 257 261 263 263 266 267 265 266 269 272 271 273 273 273
321 314 311 313 309 304 303 300 306 306 299 296 294 287 279 270 266 266 258 252 250 250 251 252 252 257 260 260 261 262 263 263 265 267 267 266 267 269 270 271 273 274 275
313 313 313 307 304 296 294 294 291 297 298 295 293 292 285 285 281 282 268 260 256 253 254 257 259 261 262 262 265 266 263 263 265 267 268 268 269 272 273 273 276 277 277
306 307 311 304 301 298 293 289 288 290 292 292 291 292 292 291 290 284 276 266 261 260 259 258 260 263 265 266 267 269 266 264 265 267 270 271 271 274 276 276 277 279 279
299 300 301 303 300 294 293 290 291 290 288 289 290 289 288 288 288 283 275 270 270 266 262 261 263 265 267 267 267 269 268 268 269 271 273 274 274 276 276 277 278 279 280
295 301 299 299 298 292 289 289 290 291 288 286 286 287 284 282 282 281 280 274 273 271 270 268 267 267 270 270 272 272 272 272 271 271 273 275 276 277 279 279 280 280 280
295 296 294 296 296 293 288 285 284 288 288 286 285 287 285 280 281 280 281 279 278 277 278 274 272 272 273 274 275 276 273 274 277 277 278 278 278 278 281 282 282 283 282
291 289 287 291 292 289 287 286 284 285 286 285 284 283 284 282 280 280 283 280 279 280 281 279 278 276 276 277 278 278 278 280 283 283 282 281 281 282 283 284 284 284 284
285 285 285 287 286 285 286 287 286 283 282 282 281 281 282 281 279 280 282 281 281 281 281 281 280 278 277 278 279 280 282 283 284 284 284 283 284 285 285 285 285 285 285
280 281 283 283 283 282 283 284 283 281 280 280 280 280 280 280 278 278 280 280 280 280 282 283 283 282 282 283 282 282 282 283 283 283 285 286 287 287 287 288 287 287 287
276 280 280 279 280 280 280 281 280 280 279 279 279 279 278 278 278 278 279 280 281 282 283 284 283 282 283 286 286 285 284 284 285 285 286 287 289 289 290 289 289 289 289
279 279 279 278 279 279 278 278 278 279 278 278 277 278 278 277 277 278 280 281 281 282 283 284 283 282 283 284 286 286 285 285 286 286 287 288 289 290 289 289 289 289 289
277 278 277 277 278 277 276 277 277 277 276 276 276 277 276 276 277 279 281 281 281 281 282 284 284 283 284 285 286 285 286 287 287 288 288 289 290 291 291 290 290 291 291
275 278 278 277 276 276 277 276 275 275 274 274 275 275 276 277 278 279 281 282 283 284 284 283 283 284 285 287 288 288 288 288 288 290 291 292 292 293 293 293 292 294 294
275 277 277 276 275 275 275 275 275 275 272 272 272 274 276 278 279 280 281 282 283 284 284 284 284 285 286 287 288 289 289 290 290 291 291 292 293 293 294 295 295 296 296
Height
5886 5883 5880 5877 5874 5872 5871 5870 5870 5870 5870 5871 5873 5874 5875 5876 5878 5880 5882 5884 5885 5887 5889 5890 5892 5893 5894 5895 5896 5896 5897 5897 5898 5898 5899 5899 5899 5898 5898 5898 5897 5897 5897
5884 5882 5879 5876 5873 5872 5870 5869 5869 5869 5870 5871 5872 5873 5874 5876 5877 5879 5880 5882 5884 5885 5887 5889 5890 5892 5893 5893 5894 5895 5896 5897 5897 5898 5898 5898 5899 5898 5898 5897 5897 5897 5896
5883 5881 5879 5876 5873 5871 5870 5869 5869 5869 5869 5870 5871 5872 5874 5875 5876 5877 5879 5881 5882 5884 5885 5887 5888 5890 5891 5892 5893 5894 5895 5895 5896 5897 5897 5897 5897 5897 5897 5897 5897 5896 5896
5883 5880 5878 5875 5872 5871 5869 5869 5868 5869 5869 5870 5871 5872 5873 5874 5875 5876 5877 5879 5881 5882 5884 5885 5887 5888 5889 5890 5891 5892 5893 5894 5895 5895 5896 5896 5896 5896 5896 5896 5896 5895 5895
5881 5879 5876 5874 5872 5870 5869 5868 5868 5868 5869 5869 5870 5871 5872 5873 5874 5874 5876 5877 5879 5881 5882 5883 5885 5886 5887 5888 5889 5890 5891 5892 5893 5893 5894 5894 5894 5895 5895 5895 5894 5894 5894
5880 5877 5875 5873 5871 5870 5869 5869 5868 5868 5868 5869 5869 5870 5870 5871 5872 5874 5875 5876 5877 5879 5880 5881 5883 5884 5885 5886 5887 5888 5889 5890 5890 5891 5891 5892 5892 5893 5893 5892 5892 5892 5892
5878 5876 5874 5872 5871 5869 5869 5868 5868 5868 5868 5868 5868 5869 5869 5870 5871 5872 5873 5874 5876 5877 5878 5879 5881 5882 5883 5884 5885 5885 5886 5887 5887 5888 5888 5889 5889 5890 5890 5890 5889 5889 5889
5877 5875 5874 5872 5870 5869 5868 5867 5867 5867 5867 5867 5867 5867 5868 5868 5869 5870 5871 5873 5874 5875 5876 5877 5878 5879 5880 5881 5882 5882 5883 5884 5884 5885 5885 5885 5885 5886 5886 5886 5886 5886 5886
5875 5874 5872 5871 5870 5868 5867 5866 5866 5866 5865 5865 5865 5866 5866 5867 5867 5868 5869 5870 5871 5873 5873 5874 5875 5876 5877 5877 5878 5879 5880 5880 5880 5881 5881 5881 5881 5881 5882 5882 5882 5882 5881
5874 5873 5871 5870 5869 5867 5867 5866 5865 5864 5864 5864 5864 5865 5865 5865 5865 5866 5867 5868 5869 5870 5871 5872 5872 5873 5873 5874 5875 5875 5876 5876 5876 5876 5877 5877 5877 5877 5877 5877 5877 5876 5876
5872 5871 5869 5868 5868 5867 5866 5865 5864 5863 5863 5863 5863 5863 5863 5864 5864 5864 5865 5866 5866 5867 5868 5868 5869 5869 5870 5870 5871 5871 5871 5872 5872 5872 5872 5872 5872 5872 5872 5871 5871 5870 5870
5870 5869 5867 5867 5866 5866 5865 5864 5863 5862 5862 5862 5862 5862 5862 5862 5862 5862 5863 5863 5863 5864 5864 5865 5865 5865 5865 5866 5866 5867 5867 5867 5867 5867 5867 5867 5867 5866 5866 5865 5865 5864 5863
5868 5867 5865 5865 5865 5864 5864 5863 5862 5861 5861 5861 5861 5861 5861 5860 5860 5860 5860 5860 5860 5861 5861 5861 5862 5861 5861 5862 5862 5862 5861 5862 5861 5861 5861 5861 5861 5860 5860 5859 5859 5857 5856
5866 5865 5864 5863 5863 5863 5862 5862 5861 5861 5860 5860 5860 5860 5859 5859 5858 5858 5857 5857 5857 5858 5858 5858 5858 5858 5857 5857 5857 5856 5856 5856 5856 5856 5855 5855 5855 5854 5853 5852 5852 5850 5849
5863 5863 5862 5861 5861 5860 5860 5859 5859 5859 5859 5859 5858 5858 5857 5856 5856 5855 5855 5854 5854 5854 5854 5854 5854 5853 5853 5853 5852 5852 5851 5851 5851 5850 5850 5849 5848 5848 5847 5846 5844 5843 5841
5860 5860 5859 5858 5858 5857 5857 5857 5857 5857 5856 5856 5856 5855 5854 5853 5853 5852 5851 5851 5850 5850 5850 5850 5849 5849 5848 5848 5847 5846 5846 5846 5845 5844 5843 5843 5842 5841 5840 5838 5837 5835 5833
5857 5856 5855 5854 5854 5854 5854 5854 5854 5854 5853 5853 5852 5851 5851 5850 5849 5848 5847 5847 5846 5846 5846 5845 5845 5844 5843 5843 5842 5841 5840 5839 5839 5838 5837 5836 5835 5834 5832 5830 5828 5827 5825
5853 5852 5852 5851 5851 5850 5850 5850 5850 5850 5849 5849 5848 5848 5847 5846 5845 5844 5843 5843 5842 5842 5841 5840 5839 5839 5838 5837 5836 5835 5834 5833 5832 5831 5830 5829 5827 5826 5824 5822 5820 5819 5816
5848 5848 5848 5848 5847 5846 5845 5846 5846 5846 5845 5845 5844 5844 5843 5842 5841 5840 5839 5838 5838 5837 5836 5835 5834 5833 5832 5831 5830 5829 5828 5827 5826 5824 5823 5821 5820 5818 5816 5814 5812 5810 5808
5843 5842 5843 5843 5843 5842 5842 5841 5841 5841 5840 5840 5839 5839 5838 5837 5836 5835 5834 5833 5832 5831 5831 5830 5829 5828 5826 5825 5824 5823 5821 5820 5819 5817 5815 5814 5812 5810 5808 5806 5803 5801 5799
5837 5837 5837 5837 5837 5837 5837 5836 5836 5835 5835 5835 5834 5833 5833 5832 5831 5830 5829 5828 5827 5826 5825 5824 5823 5821 5820 5819 5817 5816 5815 5813 5812 5810 5808 5806 5804 5802 5799 5797 5795 5792 5789
5831 5830 5830 5831 5831 5831 5831 5831 5830 5829 5829 5829 5828 5828 5827 5826 5825 5824 5823 5822 5821 5820 5819 5818 5816 5815 5814 5812 5810 5809 5807 5806 5804 5802 5800 5798 5796 5793 5791 5788 5785 5782 5779
5824 5824 5824 5824 5824 5824 5825 5824 5824 5823 5823 5822 5821 5821 5820 5820 5819 5818 5817 5816 5815 5814 5812 5811 5809 5808 5807 5805 5803 5801 5800 5798 5796 5794 5792 5789 5787 5784 5781 5778 5775 5772 5769
5818 5818 5818 5818 5818 5818 5818 5818 5817 5817 5816 5815 5815 5814 5813 5813 5812 5811 5810 5809 5808 5806 5805 5804 5802 5800 5799 5797 5796 5794 5792 5790 5788 5786 5783 5781 5778 5775 5772 5769 5765 5762 5759
5810 5811 5811 5810 5810 5811 5811 5810 5810 5810 5809 5808 5807 5807 5806 5805 5804 5804 5803 5802 5801 5799 5797 5796 5794 5793 5791 5790 5788 5786 5784 5782 5780 5777 5775 5772 5769 5766 5763 5759 5756 5752 5749
5803 5803 5803 5803 5804 5803 5803 5803 5802 5802 5801 5801 5800 5799 5798 5798 5797 5796 5796 5794 5793 5791 5790 5788 5787 5785 5784 5782 5780 5778 5776 5774 5771 5769 5766 5763 5759 5756 5753 5750 5746 5743 5739